NOAA 16 DEB

Satellite information

Favourite Embed

Satellite Type and Status

DEBRISIN ORBIT

Key statistics

Satellite NOAA 16 DEB at a glance.

Uptime

8995

Days in orbit

Revolutions

≈ 14.1

Per day

Orbit

SSO

Sun Synchronous Orbit

Inclination

98.8

Latest

Satellite identification and parameters

Extended collection of information and parameters for NOAA 16 DEB.

Object identification

Identified? True

Debris? True

Object name: NOAA 16 DEB

International designator: 2000-055RF

Object number (NORAD): 42363

Object ID (CCSDS): 42363

Country: UNITED STATES OF AMERICA (US)

Current information (Y/N): Y

RCS size: SMALL

Orbital parameters

Period: 102.053 minutes

Inclination: 98.791 deg

SMA: 7234.003 km

Apoapsis: 904.628 km

Periapsis: 807.108 km

RAAN: 129.4694 deg

Eccentricy: 0.0067404

Argument of periapsis: 107.2199 deg

Mean anomaly: 253.6364 deg

Mean motion: 14.11025114 rev/day

Mean motion (dot): 0.00005119 rev/day2

B* drag term: 0.0028091 1/REarth

Two-line elements (TLE)

Creation date: May 5, 2025, 6:46 a.m.

Reference frame: TEME

Reference center: EARTH

Epoch: May 5, 2025, 5:45 a.m. UTC

TLE line 0: 0 NOAA 16 DEB

TLE line 1: 1 42363U 00055RF 25125.24022369 .00005119 00000-0 28091-2 0 9999

TLE line 2: 2 42363 98.7910 129.4694 0067404 107.2199 253.6364 14.11025114470829

Live tracking on map

Real-time ground track for satellite NOAA 16 DEB.

In-orbit conjunctions

A list of the most updated potential collisions computed for object NOAA 16 DEB.

Target Orbit TCA Probability of collision Miss distance Type
GGSE 5 LEO 2025-02-16 09:00:45 0.000700064 402.0 (m) PAYLOAD

Associated space launch

The NOAA K, L and M POES satellites begin the fifth generation of improved environmental monitoring in support of NOAA missions. The instrument payload has significant improvements and additions/deletions. The instrument changes have effected the spacecraft subsystems and data formats.

NOAA 16 DEB was lifted into orbit during the mission ‘Titan II SLV | NOAA 16’, on board a Titan II SLV space rocket.

The launch took place on Sept. 21, 2000, 10:22 a.m. from Space Launch Complex 4W.

For more information about the launch, click the button.

Launch to space Titan II SLV | NOAA 16
Titan II SLV | NOAA 16

Agency: N/A

Status: Launch Successful

Launch date: Sept. 21, 2000, 10:22 a.m. UTC

Rocket: Titan II SLV

Launch pad: Space Launch Complex 4W

Location: Vandenberg SFB, CA, USA

...

Latest news about this satellite

There are no fresh news available about this satellite. Check back as we update our databases every day.


Newsletter sign-up

Weekly statistics, charts and insights to help you stay on top of the space industry.